Location: Landeleau
(48.2273°N, 3.7285°W)
Time: 11:20:32
(UTC+00:00)

Cosmos 2278 Rocket - Pass Details

Date: 30 March 2020
Orbit: 839 x 847 km, 71.0° (Epoch: 27 May)

Event Time Altitude Azimuth Distance (km) Brightness Sun altitude
Rises 19:04:13 0° 328° (NNW) 3,414 6.1 -4.3°
Reaches altitude 10° 19:06:44 10° 323° (NW) 2,476 5.4 -4.7°
Maximum altitude 19:12:11 49° 250° (WSW) 1,082 3.3 -5.6°
Drops below altitude 10° 19:17:36 10° 177° (S) 2,464 4.5 -6.5°
Sets 19:20:06 0° 172° (S) 3,395 5.1 -6.9°
